Regional Weather Roundup
Issued by NWS State College, PA

Home | Current Version | Previous Version | Graphics & Text | Print | Product List | Glossary Off
Versions: 1 2 3 4 5 6 7 8 9 10 11 12 13 14 15 16 17 18 19 20 21 22 23 24 25 26 27 28 29 30 31 32 33 34 35 36 37 38 39 40 41 42 43 44 45 46 47 48 49 50

000
ASUS41 KCTP 280210
RWRCTP

REGIONAL WEATHER ROUNDUP
NATIONAL WEATHER SERVICE STATE COLLEGE PA
1000 PM EDT THU AUG 27 2015

Note: "fair" indicates few or no clouds below 12,000 feet with no
significant weather and/or obstructions to visibility.

* = STATION THAT DOES NOT REPORT PRECIPITATION /E.G. RAIN...SNOW...ETC/
    THUNDER OR FOG.

PAZ002>004-007>009-013>016-020>023-029>032-280300-
WESTERN PENNSYLVANIA

CITY           SKY/WX    TMP DP  RH WIND       PRES   REMARKS
ERIE           PTCLDY    59  54  83 S5        30.19R
MEADVILLE      CLEAR     57  52  83 N3        30.21R
FRANKLIN*      CLEAR     55  50  82 CALM      30.22R
NEW CASTLE     MOCLDY    63  57  80 CALM      30.21R
BEAVER COUNTY  NOT AVBL
BUTLER*        CLEAR     59  55  88 CALM      30.21R
PITTSBURGH INT CLOUDY    66  57  72 CALM      30.18R
PITTSBURGH     CLOUDY    66  51  58 CALM      30.18R
INDIANA*       CLOUDY    63  59  88 CALM      30.22S
LATROBE        MOCLDY    63  59  88 CALM      30.19R
WASHINGTON CO* MOCLDY    59  57  94 CALM      30.19S
$$

PAZ004>006-010>012-017>019-024>028-033>037-041-042-045-046-049>053-280300-
CENTRAL PENNSYLVANIA

CITY           SKY/WX    TMP DP  RH WIND       PRES   REMARKS
BRADFORD       CLEAR     52  49  89 CALM      30.21R
DUBOIS         MOCLDY    62  54  74 N5        30.20R
CLEARFIELD     CLOUDY    65  54  67 CALM      30.19R
JOHNSTOWN      CLOUDY    62  53  72 CALM      30.21R
ALTOONA        CLOUDY    62  56  80 CALM      30.19R
STATE COLLEGE  NOT AVBL
WILLIAMSPORT   CLOUDY    66  58  75 N3        30.14R
SELINSGROVE    MOCLDY    60  58  92 CALM      30.15R
FT INDIANTOWN  CLEAR     62  57  83 CALM      30.15R
CAPITAL CITY   CLOUDY    65  58  78 CALM      30.15R
HARRISBURG     CLOUDY    66  58  75 CALM      30.14R
YORK           MOCLDY    61  58  90 CALM      30.15R
$$

PAZ038>040-043-044-047-048-054-055-060>062-067>071-280300-
EASTERN PENNSYLVANIA

CITY           SKY/WX    TMP DP  RH WIND       PRES   REMARKS
SCRANTON       CLOUDY    64  55  72 E3        30.16R
MOUNT POCONO   PTCLDY    54  51  90 CALM      30.18R
ALLENTOWN      CLEAR     63  54  72 NW3       30.14R
QUAKERTOWN*    CLEAR     61  55  82 CALM      30.15R
READING        CLEAR     63  55  75 CALM      30.13R
LANCASTER      CLEAR     65  56  72 NW5       30.15R
COATESVILLE    MOCLDY    64  55  72 NW5       30.15S
POTTSTOWN      CLEAR     62  56  80 CALM      30.15R
BLUE BELL      CLEAR     59  59 100 CALM      30.13R
DOYLESTOWN     CLEAR     61  57  87 CALM      30.13R
WILLOW GROVE   NOT AVBL
NORTH PHILA    CLEAR     70  53  54 N6        30.13R
PHILADELPHIA   CLEAR     73  53  49 NW7       30.13R
$$


USA.gov is the U.S. government's official web portal to all federal, state and local government web resources and services.